Regional Weather Roundup
Issued by NWS

Home | Current Version | Previous Version | Text Only | Print | Product List | Glossary On
Versions: 1 2 3 4 5 6 7 8 9 10 11 12 13 14 15 16 17 18 19 20 21 22 23 24 25 26 27 28 29 30 31 32 33 34 35 36 37 38 39 40 41 42 43 44 45 46 47 48 49 50
515
ASHW40 PHFO 262312
RWRHI

WEATHER ROUNDUP FOR HAWAII
NATIONAL WEATHER SERVICE HONOLULU HI
100 PM HST FRI AUG 26 2016

THIS IS AN AUTOMATED REPORT THAT HAS NOT BEEN QUALITY CONTROLLED.

NOTE..."FAIR" INDICATES FEW OR NO CLOUDS BELOW 12,000 FEET WITH NO
SIGNIFICANT WEATHER AND/OR OBSTRUCTIONS TO VISIBILITY.

* - THESE SITES REPORT LIMITED FIELDS

HIZ001>004-270000-
KAUAI-NIIHAU-

CITY           SKY/WX    TMP DP  RH WIND       PRES   REMARKS
LIHUE APT      PTSUNNY   85  72  65 NE15      30.05F HX  91
PORT ALLEN*      N/A     81 N/A N/A E17G26      N/A
POIPU*           N/A     81 N/A N/A NE7G17      N/A
PRINCEVILLE*     N/A     81 N/A N/A E8G17       N/A
KOKOLE POINT*  NOT AVBL
MOLOAA DAIRY*    N/A     84  70  61 E6G13       N/A
WAIMEA HTS*    NOT AVBL
PUU OPAE*      NOT AVBL
PUU LUA*       NOT AVBL
MAKAHA RIDGE*  NOT AVBL
$$

HIZ005>011-270000-
OAHU-

CITY           SKY/WX    TMP DP  RH WIND       PRES   REMARKS
HONOLULU       MOSUNNY   86  65  49 NE18G26   30.00F
KALAELOA       PTSUNNY   88  66  48 E12G23    30.01F HX  90
KANEOHE MCB    MOSUNNY   83  70  64 NE9G20    30.00F
WHEELER FIELD  FAIR      83  69  62 NE20      30.03F
BELLOWS*       NOT AVBL
KAHUKU*        NOT AVBL
WHEELER*       NOT AVBL
WAIANAE HARBOR NOT AVBL
DILLINGHAM*      N/A     88  70  55 MISG        N/A  HX  92
KAHUKU TRN*      N/A     73  63  68 W8G20       N/A
KAWAILOA*        N/A     77  66  69 E13G23      N/A
KII*             N/A     82  72  69 E14G20      N/A
MAKUA RANGE*     N/A     70  57  64 W12G21      N/A
OAHU FOREST NW NOT AVBL
SCHOFIELD BRK*   N/A     82  70  65 MISG        N/A
SCHOFIELD S*   NOT AVBL
WAIANAE VLY*   NOT AVBL
KUAOKALA*      NOT AVBL
HONOULIUULI*   NOT AVBL
MOKUOLOE IS*   NOT AVBL
PALEHUA*       NOT AVBL
WAIAWA PHB*    NOT AVBL
$$

HIZ012>013-270000-
MOLOKAI-

CITY           SKY/WX    TMP DP  RH WIND       PRES   REMARKS
MOLOKAI AIRPT  SUNNY     85  68  56 N15G26    30.01F
KALAUPAPA      NOT AVBL
MAKAPULAPAI*   NOT AVBL
MOLOKAI 1*     NOT AVBL
PUU ALII*      NOT AVBL
$$

HIZ016-270000-
KAHOOLAWE-

CITY           SKY/WX    TMP DP  RH WIND       PRES   REMARKS
KAHOOLAWE*     NOT AVBL
HAKIOAWA*      NOT AVBL
HONOKANAIA*      N/A     88  71  56 NE14G30   29.94F HX  93
KANELOA*         N/A     81  70  69 E20G32    30.08
KEALIALALO*    NOT AVBL
LUA MAKIKA*    NOT AVBL
$$

HIZ014>015-270000-
LANAI-

CITY           SKY/WX    TMP DP  RH WIND       PRES   REMARKS
LANAI CITY     FAIR      81  67  62 NE21G31   30.04F
LANAI 1*       NOT AVBL
$$

HIZ017>028-270000-
MAUI-

CITY           SKY/WX    TMP DP  RH WIND       PRES   REMARKS
KAHULUI        MOSUNNY   88  67  49 NE23      29.99F HX  91
KAPALUA-W MAUI MOSUNNY   86  68  54 NE22      30.01
HANA AIRPORT     N/A     84  70  61 NE7       30.04F
HANA*            N/A     82 N/A N/A NE7         N/A
HALEAKALA SUMM   N/A     59  19  21 NE15G31     N/A
MAALAEA BAY*   NOT AVBL
HALEAKALA*     NOT AVBL
KAUPO GAP*     NOT AVBL
KULA 1*          N/A     61  58  90 W3G12       N/A
$$

HIZ023>026-270000-
BIG ISLAND OF HAWAII COAST AND LOWER SLOPES-

CITY           SKY/WX    TMP DP  RH WIND       PRES   REMARKS
KAILUA KONA    PTSUNNY   85  72  65 SW12      29.95F HX  91
HILO           PTSUNNY   83  69  62 N10       30.00F
HONOKAA*         N/A     81 N/A N/A VRB1        N/A
KAWAIHAE MWT*    N/A     86 N/A N/A W10         N/A
KAWAIHAE*      NOT AVBL
SOUTH POINT*     N/A     79 N/A N/A N17G25      N/A
UPOLU AIRPORT* NOT AVBL
KAMUELA*       PTCLDY    79  63  57 NE22      30.08F
HAKALAU*         N/A     63  56  78 NE6         N/A
KALOKO-HONOKO* NOT AVBL
PALI 2*          N/A     79  59  50 S17G28      N/A
KEALAKOMO*       N/A     84  63  48 NE23G35     N/A
KAUPULEHU*     NOT AVBL
KAPAPALA*        N/A     79  66  64 SE7G13      N/A
LOWER KAHUKU*  NOT AVBL
PUHE CS*       NOT AVBL
PUHO CS*       NOT AVBL
PTA KEAMUKU*     N/A     77  59  53 CALM        N/A
WAIKOLOA*      NOT AVBL
$$

HIZ027>028-270000-
BIG ISLAND OF HAWAII INTERIOR AND SUMMMITS-

CITY           SKY/WX    TMP DP  RH WIND       PRES   REMARKS
BRADSHAW FIELD MOSUNNY   73  56  56 W9G21     30.31F
MK VISITOR CEN   N/A     57  48  72 W8          N/A
MAUNA KEA*       N/A     48  12  23 SE17        N/A
MAUNA LOA*       N/A     55  39  54 MISG        N/A
MAUNA LOA 1*   NOT AVBL
PTA KIPUKA*      N/A     52  39  62 NW10G17     N/A
PTA RANGE 17*    N/A     54  39  58 W13G22      N/A
PTA WEST*        N/A     75  57  53 NW18G25     N/A
NENE CABIN*    NOT AVBL
AHUMOA*        NOT AVBL
PTA PORTABLE*  NOT AVBL
PUU MALI*      NOT AVBL
$$

HIC003-270000-
NORTHWEST ISLANDS-

CITY           SKY/WX    TMP DP  RH WIND       PRES   REMARKS
MIDWAY ISLAND  CLOUDY    81  70  69 NE13      30.10F
MIDWAY NOS*    NOT AVBL
FRENCH FRIGATE NOT AVBL
$$

PHZ110>124-180-270000-
BUOY REPORTS

STATION/POSITION TIME  TEMP    WIND        PRES    WAVE   SWELL
                       AIR SEA DIR/SP/G            HT/PER HT/DIR
                 (UTC) (F)     (DEG/KT/KT) (MB)    (FT/S) (FT/D)
BUOY 51001       NOT AVBL
BUOY 51101       2250   80 82   70/ 12/ 14 1018.5F   4/14   3/170
BUOY 51100       NOT AVBL
BUOY 51002       NOT AVBL
BUOY 51003       2250   81 83   50/ 16/ 17 1015.1F   5/14   3/160
BUOY 51004       2250   81 82   50/ 16/ 17 1014.0F   6/ 8   5/ 70
BARBERS PT BUOY  NOT AVBL
WAIMEA BAY BUOY  2204      81                N/A     4/ 6
KAILUA BAY BUOY  2211      81                N/A     5/ 6   2/140
LANAI BUOY       2215      82                N/A     2/13   2/200
BARBERS PT 2     NOT AVBL
PAUWELA MAUI     2209      80                N/A     4/ 5
HILO             2212      82                N/A     6/ 8   2/140
KANEOHE BAY BUOY 2206      80                N/A     5/ 6
HANALEI KAUAI    NOT AVBL
KAHULUI HARBOR   2200   80 83              1016.6F
HONOLULU HARBOR  2200   85 82              1017.1F
KILO NALU        NOT AVBL
HILO HARBOR      2200   79 81              1016.4F
MOKUOLOE         2200   81 83   80/ 10/ 15 1017.3F
NAWILIWILI       2200   77 82              1017.9F
WHOTS BUOY       NOT AVBL
BUOY 51028       NOT AVBL
$$

......................KEY........................................
  SKY/WX - SKY CONDITIONS/PRESENT WEATHER
  TMP    - TEMPERATURE IN FAHRENHEIT
  DWPT   - DEWPOINT IN FAHRENHEIT
  RH     - RELATIVE HUMIDITY IN PERCENT
  WIND   - DIRECTION AND SPEED /MPH FOR ISLANDS...KTS FOR BUOYS/
  PRES   - MEAN SEA LEVEL PRESSURE IN INCHES OF HG
  VSB    - VISIBILITY IN MILES
  HX     - HEAT INDEX
  WCI    - WIND CHILL INDEX
  VRB    - VARIABLE WIND DIRECTION
  N/A    - NOT AVAILABLE




USA.gov is the U.S. government's official web portal to all federal, state and local government web resources and services.